Location: Chagrin Falls Park
(41.4139°N, 81.3865°W)
Time: 00:03:30
(UTC+00:00)

STARLINK-2657 - Pass Details

Date: 31 July 2021
Orbit: 546 x 548 km, 53.1° (Epoch: 20 September)

Event Time Altitude Azimuth Distance (km) Brightness Sun altitude
Rises 01:29:26 0° 308° (NW) 2,721 9.6 -8.2°
Reaches altitude 10° 01:31:40 10° 310° (NW) 1,824 8.0 -8.5°
Maximum altitude 01:35:49 77° 37° (NE) 567 3.7 -9.2°
Enters shadow 01:39:25 13° 123° (ESE) 1,609 5.3 -9.7°
